FW6886 Weather Reports


time (UTC)temp
C
wind
direction
speed
KPH
gust
KPH
rain 1hr
cm
rain 24hr
cm
rain mn
cm
humidity
%
barometer
mb
20260906150056 21 174 8.0 16.1 0.00 0.00 0.00 85 1018.1
20260906144559 20 161 4.8 17.7 0.00 0.00 0.00 83 1018.2
20260906143108 20 193 3.2 9.7 0.00 0.00 0.00 82 1018.0
20260906141554 20 107 3.2 11.3 0.00 0.00 0.00 81 1017.8
20260906140050 20 167 3.2 11.3 0.00 0.00 0.00 80 1017.8
20260906134553 19 101 1.6 11.3 0.00 0.00 0.00 80 1017.8
20260906133053 19 140 0.0 9.7 0.00 0.00 0.00 79 1017.8
20260906131553 19 115 0.0 11.3 0.00 0.00 0.00 79 1017.5
20260906130046 19 101 1.6 9.7 0.00 0.00 0.00 79 1017.5
20260906124542 19 186 6.4 16.1 0.00 0.00 0.00 79 1017.5
20260906123041 19 165 3.2 8.0 0.00 0.00 0.00 79 1017.5
20260906121544 19 157 1.6 9.7 0.00 0.00 0.00 79 1017.4
20260906120040 19 67 1.6 9.7 0.00 0.00 0.00 79 1017.1
20260906114537 19 152 0.0 8.0 0.00 0.00 0.00 79 1017.1
20260906113044 19 110 0.0 8.0 0.00 0.00 0.00 79 1017.1
20260906111536 19 101 1.6 12.9 0.00 0.00 0.00 80 1016.8
20260906110031 19 108 3.2 9.7 0.00 0.00 0.00 80 1016.6
20260906104529 19 74 1.6 9.7 0.00 0.00 0.00 80 1016.5
20260906103027 19 88 1.6 8.0 0.00 0.00 0.00 81 1016.3
20260906101527 19 118 1.6 6.4 0.00 0.00 0.00 81 1016.3
20260906100026 19 131 0.0 8.0 0.00 0.00 0.00 81 1016.2
20260906094532 19 138 0.0 3.2 0.00 0.00 0.00 81 1015.8
20260906093023 20 104 1.6 12.9 0.00 0.00 0.00 81 1015.8
20260906091528 20 130 1.6 9.7 0.00 0.00 0.00 81 1015.7
20260906090022 20 100 1.6 6.4 0.00 0.00 0.00 81 1015.7
20260906084525 20 122 0.0 6.4 0.00 0.00 0.00 81 1015.7
20260906083024 20 123 0.0 4.8 0.00 0.00 0.00 81 1015.7
20260906081531 20 104 0.0 11.3 0.00 0.00 0.00 81 1015.9
20260906080016 20 115 0.0 4.8 0.00 0.00 0.00 81 1015.9
20260906074515 20 100 1.6 4.8 0.00 0.00 0.00 82 1016.1
20260906073013 20 110 0.0 6.4 0.00 0.00 0.00 83 1016.1
20260906071511 20 105 1.6 6.4 0.00 0.00 0.00 83 1016.0
20260906070010 20 137 0.0 6.4 0.00 0.00 0.00 83 1016.0
20260906064508 20 107 1.6 8.0 0.00 0.00 0.00 83 1016.1
20260906063008 20 98 1.6 6.4 0.00 0.00 0.00 84 1016.3
20260906061507 20 101 0.0 3.2 0.00 0.00 0.00 84 1016.2
20260906060008 20 109 1.6 4.8 0.00 0.00 0.00 83 1016.2
20260906054505 20 119 0.0 4.8 0.00 0.00 0.00 83 1016.3
20260906053005 20 150 0.0 1.6 0.00 0.00 0.00 83 1016.2
20260906051503 21 144 0.0 0.0 0.00 0.00 0.00 84 1016.1
20260906050128 21 145 0.0 3.2 0.00 0.00 0.00 83 1016.3
20260906044559 21 145 0.0 3.2 0.00 0.00 0.00 83 1016.4
20260906043108 21 156 0.0 3.2 0.00 0.00 0.00 83 1016.5
20260906041558 21 175 0.0 0.0 0.00 0.00 0.00 84 1016.5
20260906040059 21 175 0.0 0.0 0.00 0.00 0.00 84 1016.5
20260906034556 21 175 0.0 0.0 0.00 0.00 0.00 84 1016.4
20260906033054 21 175 0.0 1.6 0.00 0.00 0.00 84 1016.5
20260906031555 21 175 0.0 4.8 0.00 0.00 0.00 84 1016.3
20260906024550 21 176 0.0 3.2 0.00 0.00 0.00 85 1015.9
20260906023052 21 176 0.0 3.2 0.00 0.00 0.00 85 1015.7
20260906021606 21 175 0.0 1.6 0.00 0.00 0.00 85 1015.2
20260906020048 22 176 0.0 3.2 0.00 0.00 0.00 85 1014.9
20260906014547 22 176 1.6 4.8 0.00 0.00 0.00 85 1014.5
20260906013047 22 176 0.0 6.4 0.00 0.00 0.00 84 1014.2
20260906011546 22 176 0.0 0.0 0.00 0.00 0.00 84 1014.1
20260906010045 23 176 0.0 0.0 0.00 0.00 0.00 83 1014.1
20260906004545 23 176 0.0 0.0 0.00 0.00 0.00 81 1014.2
20260906003050 23 176 0.0 0.0 0.00 0.00 0.00 80 1014.0
20260906001544 23 177 1.6 6.4 0.00 0.00 0.00 79 1013.8
20260906000043 24 140 1.6 4.8 0.00 0.00 0.00 78 1013.9
20260905234552 24 81 0.0 6.4 0.00 0.00 0.00 76 1013.5
20260905233042 24 91 1.6 6.4 0.00 0.00 0.00 76 1013.5
20260905231541 24 86 3.2 11.3 0.00 0.00 0.00 76 1013.4
20260905230140 25 90 1.6 19.3 0.00 0.00 0.00 76 1013.4
20260905224542 25 80 6.4 17.7 0.00 0.00 0.00 76 1013.3
20260905223041 25 94 6.4 20.9 0.00 0.00 0.00 76 1013.4
20260905221538 25 94 4.8 14.5 0.00 0.00 0.00 75 1013.1
20260905220040 25 103 6.4 12.9 0.00 0.00 0.00 74 1013.2
20260905214538 25 113 6.4 16.1 0.00 0.00 0.00 73 1013.2
20260905213038 26 140 4.8 14.5 0.00 0.00 0.00 72 1013.6
20260905211535 26 65 6.4 22.5 0.00 0.00 0.00 69 1013.7
20260905210043 26 53 1.6 12.9 0.00 0.00 0.00 71 1014.2
20260905204533 26 108 3.2 12.9 0.00 0.00 0.00 73 1014.3
20260905203033 26 93 3.2 12.9 0.00 0.00 0.00 71 1014.5
20260905201538 26 82 1.6 14.5 0.00 0.00 0.00 71 1014.7
20260905200040 27 81 1.6 8.0 0.00 0.00 0.00 70 1014.9
20260905194530 27 360 3.2 9.7 0.00 0.00 0.00 69 1015.0
20260905193031 27 74 3.2 14.5 0.00 0.00 0.00 70 1014.7
20260905191527 27 81 1.6 9.7 0.00 0.00 0.00 70 1014.6
20260905190023 26 119 3.2 11.3 0.00 0.00 0.00 73 1014.6
20260905184527 26 136 3.2 14.5 0.00 0.00 0.00 72 1014.8
20260905183025 26 173 3.2 11.3 0.00 0.00 0.00 74 1015.1
20260905181515 25 27 0.0 6.4 0.00 0.00 0.00 77 1015.3
20260905180015 25 17 1.6 12.9 0.00 0.00 0.00 79 1015.2
20260905174526 25 113 1.6 8.0 0.00 0.00 0.00 80 1015.4
20260905173009 24 119 1.6 4.8 0.00 0.00 0.00 81 1015.8
20260905171508 24 46 1.6 6.4 0.00 0.00 0.00 82 1015.9
20260905170006 24 123 0.0 6.4 0.00 0.00 0.00 81 1015.6
20260905164505 24 106 0.0 3.2 0.00 0.00 0.00 82 1015.6
20260905163004 23 70 4.8 12.9 0.00 0.00 0.00 82 1015.5
20260905161601 23 78 4.8 11.3 0.00 0.00 0.00 84 1015.3
20260905160100 23 63 3.2 9.7 0.00 0.00 0.00 83 1015.3
20260905154556 23 99 4.8 9.7 0.00 0.00 0.00 84 1015.2
20260905153054 23 85 3.2 14.5 0.00 0.00 0.00 85 1015.2
20260905151550 22 61 1.6 4.8 0.00 0.00 0.00 85 1015.4